Needles, CA

6:20 PM PDT on April 22, 2018 (GMT -0700)
Needles

Weather History for KEED - December, 2012

Change the Weather History Date:

Sunday, December 23, 2012

  Actual Average Record
Temperature  
Mean Temperature 50 °F 52 °F  
Max Temperature 62 °F 62 °F 81 °F (1955)
Min Temperature 39 °F 42 °F 20 °F (1990)
Degree Days  
Heating Degree Days 14    
Cooling Degree Days 0    
Moisture  
Dew Point 35 °F    
Average Humidity 56    
Maximum Humidity 77    
Minimum Humidity 33    
Precipitation  
Precipitation 0.00 in 0.02 in 0.50 in (1945)
Month to date precipitation 0.33  
Year to date precipitation 4.44  
Sea Level Pressure  
Sea Level Pressure 30.06 in    
Wind  
Wind Speed 3 mph (WNW)    
Max Wind Speed 12 mph    
Max Gust Speed -    
Visibility 10 miles    
Events      
T = Trace of Precipitation, MM = Missing Value Source: NWS Daily Summary

Daily Weather History Graph

Daily Weather History Graph

Search for Another Location

Airport or City:

Astronomy

Dec. 23, 2012 Rise Set
Actual Time 6:43 AM PST 4:32 PM PST
Civil Twilight 6:15 AM PST 5:00 PM PST
Nautical Twilight 5:43 AM PST 5:32 PM PST
Astronomical Twilight 5:12 AM PST 6:03 PM PST
Moon 1:21 PM PST 2:34 AM PST
Length of Visible Light 10h 45m
Length of Day
9h 49m
Waxing Gibbous, 82% of the Moon is Illuminated
Dec 23
Waxing Gibbous
Dec 28
Full
Jan 4
Last Quarter
Jan 11
New
Jan 18
First Quarter

Hourly Weather History & Observations

Time (PST) Temp. Windchill Dew Point Humidity Pressure Visibility Wind Dir Wind Speed Gust Speed Precip Events Conditions
12:56 AM 44.1 °F - 36.0 °F 73% 30.10 in 10.0 mi Calm Calm - N/A   Clear
1:56 AM 43.0 °F - 35.1 °F 74% 30.08 in 10.0 mi Calm Calm - N/A   Clear
2:56 AM 43.0 °F 40.3 °F 34.0 °F 71% 30.08 in 10.0 mi WNW 4.6 mph - N/A   Clear
3:56 AM 41.0 °F 37.1 °F 34.0 °F 76% 30.09 in 10.0 mi North 5.8 mph - N/A   Clear
4:56 AM 41.0 °F 35.2 °F 34.0 °F 76% 30.09 in 10.0 mi West 9.2 mph - N/A   Clear
5:56 AM 39.9 °F 36.7 °F 33.1 °F 77% 30.13 in 10.0 mi NNW 4.6 mph - N/A   Clear
6:56 AM 39.9 °F 37.8 °F 33.1 °F 77% 30.13 in 10.0 mi West 3.5 mph - N/A   Clear
7:56 AM 44.1 °F - 34.0 °F 68% 30.13 in 10.0 mi Calm Calm - N/A   Clear
8:56 AM 46.0 °F - 35.1 °F 66% 30.15 in 10.0 mi Calm Calm - N/A   Clear
9:56 AM 53.1 °F - 33.1 °F 47% 30.13 in 10.0 mi Calm Calm - N/A   Clear
10:56 AM 55.9 °F - 33.1 °F 42% 30.09 in 10.0 mi East 3.5 mph - N/A   Clear
11:56 AM 57.9 °F - 35.1 °F 42% 30.06 in 10.0 mi ENE 3.5 mph - N/A   Clear
12:56 PM 61.0 °F - 35.1 °F 38% 30.03 in 10.0 mi Calm Calm - N/A   Clear
1:56 PM 61.0 °F - 34.0 °F 36% 30.02 in 10.0 mi ENE 3.5 mph - N/A   Clear
2:56 PM 62.1 °F - 34.0 °F 35% 30.00 in 10.0 mi ESE 3.5 mph - N/A   Clear
3:56 PM 60.1 °F - 37.9 °F 44% 30.01 in 10.0 mi North 4.6 mph - N/A   Clear
4:56 PM 57.9 °F - 39.0 °F 49% 29.99 in 10.0 mi Calm Calm - N/A   Clear
5:56 PM 59.0 °F - 30.0 °F 33% 30.00 in 10.0 mi WSW 5.8 mph - N/A   Overcast
6:56 PM 55.9 °F - 35.1 °F 45% 30.01 in 10.0 mi Calm Calm - N/A   Mostly Cloudy
7:56 PM 53.1 °F - 36.0 °F 52% 30.02 in 10.0 mi WNW 5.8 mph - N/A   Clear
8:56 PM 51.1 °F - 34.0 °F 52% 30.00 in 10.0 mi WSW 11.5 mph - N/A   Clear
9:56 PM 51.1 °F - 36.0 °F 56% 30.01 in 10.0 mi Calm Calm - N/A   Clear
10:56 PM 52.0 °F - 35.1 °F 53% 30.00 in 10.0 mi WSW 3.5 mph - N/A   Clear
11:56 PM 50.0 °F - 36.0 °F 59% 29.97 in 10.0 mi WSW 6.9 mph - N/A   Clear